Location: *
(55.5817°S, 142.4781°W)
Time: 09:35:56
(UTC+00:00)

Cosmos 1725 Rocket - Pass Details

Date: 29 April 2025
Orbit: 960 x 991 km, 82.9° (Epoch: 18 May)

Event Time Altitude Azimuth Distance (km) Brightness Sun altitude
Exits shadow 13:33:14 19° 4° (N) 2,177 5.7 -28.0°
Maximum altitude 13:37:56 70° 84° (E) 1,056 4.2 -27.4°
Drops below altitude 10° 13:44:18 10° 166° (SSE) 2,786 6.7 -26.5°
Sets 13:46:51 0° 167° (SSE) 3,743 7.4 -26.1°
